Theta_e
311 311 311 312 312 311 311 310 310 309 309 309 308 307 307 306 305 305 304 304 301 299 297 296 294 293 293 293 293 293 293 293
311 311 311 311 311 310 311 311 310 310 310 309 308 308 307 308 306 305 304 304 302 299 297 296 294 293 292 292 292 292 292 292
312 312 310 310 311 310 311 311 311 311 310 309 308 307 306 308 308 305 304 304 302 300 298 296 295 294 293 292 292 292 292 292
311 310 308 308 308 310 310 309 310 310 310 308 307 306 306 307 307 306 305 304 302 300 298 297 295 293 293 292 292 291 292 291
305 304 305 305 306 308 307 306 307 308 309 308 308 309 308 306 305 305 305 303 302 300 299 297 295 293 292 292 291 290 290 290
298 299 301 304 306 307 307 307 305 305 306 308 308 308 306 304 305 304 303 302 301 299 297 295 294 293 292 291 290 290 290 290
296 296 295 296 298 299 302 303 304 305 305 304 306 306 307 306 304 305 302 299 298 297 296 296 294 293 292 291 290 289 289 289
296 294 294 295 295 295 297 298 300 303 305 305 302 304 303 304 303 303 300 298 297 297 295 294 294 293 291 290 289 288 288 288
294 292 292 293 295 296 295 298 298 299 301 301 300 302 302 302 302 301 300 299 298 296 295 294 294 292 290 289 288 288 288 287
289 291 291 291 291 294 296 296 298 298 297 295 296 297 298 299 299 299 298 297 296 294 294 294 293 290 288 288 287 287 286 285
286 286 287 288 289 290 292 295 295 296 298 297 294 295 294 295 296 296 295 295 294 294 294 293 294 290 288 287 286 286 285 284
286 286 286 285 286 287 290 291 292 294 296 299 298 292 293 292 292 293 293 292 291 292 292 291 291 288 287 286 286 286 286 285
283 283 284 284 285 285 286 288 290 291 292 296 298 298 293 290 290 289 288 289 290 290 289 289 288 287 285 284 285 285 285 285
282 283 283 283 284 284 286 286 287 290 291 293 296 297 298 296 290 287 286 286 288 288 288 287 286 284 282 282 282 284 283 283
282 282 283 283 283 284 284 283 284 285 288 290 293 295 297 298 297 292 288 286 286 285 285 285 284 284 280 281 281 281 281 280
280 281 282 282 283 282 281 281 282 283 283 286 290 293 293 294 295 295 295 295 292 290 288 287 286 285 283 281 280 280 281 281
275 275 277 278 281 282 280 278 278 279 281 281 284 288 291 291 291 290 290 288 289 287 287 290 287 287 285 283 280 281 282 281
273 273 274 275 276 276 276 277 278 278 279 280 281 283 285 288 289 289 287 286 285 281 281 284 283 282 282 281 279 279 279 281
270 272 272 273 274 271 272 274 275 276 277 278 279 281 282 284 286 285 285 283 283 280 278 278 279 278 278 278 277 277 276 281
266 268 268 269 271 270 270 271 272 273 275 276 278 280 281 282 284 283 282 281 280 280 278 277 277 277 278 277 277 279 282 280
Wind_Speed
23 16 11 9 10 16 21 22 29 32 37 42 45 44 44 46 46 44 43 43 42 41 43 44 44 43 40 37 34 32 29 26
18 14 12 11 13 14 17 24 28 32 40 44 44 46 47 47 48 46 45 45 44 43 42 44 46 44 43 40 37 34 31 28
38 33 17 25 30 32 31 33 36 37 41 45 47 49 51 50 49 49 48 47 45 44 43 44 47 46 45 43 41 38 35 31
32 36 39 33 34 37 41 38 39 43 48 49 50 52 52 52 53 54 52 50 49 47 47 47 48 49 47 44 43 41 37 32
25 27 27 32 35 35 39 45 48 47 52 51 50 49 53 55 54 55 56 55 54 51 50 49 50 49 47 46 45 43 38 33
34 35 35 34 33 34 36 41 44 44 47 53 51 53 54 54 53 53 53 57 56 53 52 51 50 50 50 50 47 45 40 35
34 37 39 41 41 42 40 42 45 48 48 47 55 60 53 55 53 52 54 56 54 54 53 53 53 50 51 50 49 45 40 35
31 37 41 41 42 44 45 44 44 41 46 45 45 53 58 54 54 53 55 53 52 52 53 55 53 52 53 53 50 45 41 37
35 43 40 39 41 44 44 44 46 40 35 38 41 45 51 52 54 53 53 51 50 52 51 53 54 53 54 55 50 46 42 38
39 36 42 41 40 42 46 45 42 45 39 36 35 39 44 49 51 48 49 50 51 52 51 52 52 52 55 54 50 46 41 37
36 39 44 41 41 42 41 43 39 39 43 42 33 31 36 39 43 45 48 48 47 49 49 49 50 52 57 58 48 45 41 36
41 42 42 44 42 44 42 42 43 37 38 42 39 30 28 31 36 41 43 44 45 46 48 51 50 50 55 55 50 46 41 37
39 44 46 45 43 45 44 43 43 41 40 36 37 35 28 27 29 35 38 41 41 44 47 49 48 48 52 52 49 44 41 38
45 51 53 51 48 50 47 44 40 40 40 38 32 35 32 26 26 30 35 38 40 43 44 46 45 45 48 44 42 43 40 36
48 52 56 55 55 51 50 47 42 43 41 37 35 32 30 30 28 27 34 36 38 42 44 45 45 45 48 39 34 33 36 33
49 53 57 56 56 54 52 49 47 46 43 44 38 32 34 35 35 35 34 32 35 41 42 44 47 50 52 51 44 38 33 32
52 54 59 57 56 55 51 49 46 45 42 39 41 37 34 35 38 40 40 38 37 39 39 39 43 44 50 51 47 46 43 34
56 59 59 58 58 53 48 45 44 42 42 36 40 42 41 35 37 41 41 37 36 36 36 38 41 44 49 51 46 44 43 36
56 60 56 55 56 48 41 38 39 40 38 37 34 43 44 40 33 37 40 39 38 28 28 27 28 33 39 39 36 35 35 29
52 52 50 49 51 42 37 38 40 41 41 38 33 41 42 37 32 35 34 34 32 30 27 28 26 35 39 40 46 41 33 32
Wind_Direction
2 353 316 291 272 267 259 253 256 249 245 242 241 240 240 239 237 236 236 237 236 234 234 234 234 233 231 231 231 233 239 246
338 359 338 321 305 299 300 280 262 259 255 251 247 242 239 239 240 238 238 239 238 235 233 233 233 232 231 231 231 232 237 245
302 310 292 303 297 292 284 278 275 263 260 257 249 244 241 240 240 240 240 240 238 236 232 232 232 232 231 230 232 232 235 240
311 303 312 314 309 312 304 290 276 283 266 258 251 248 245 244 242 241 240 239 239 235 233 232 232 230 229 231 232 233 234 236
353 346 344 341 334 318 307 308 299 285 268 263 255 255 252 247 245 244 243 241 239 237 234 232 232 230 229 229 230 232 232 235
355 356 353 348 337 324 315 312 306 302 279 263 257 257 254 249 250 247 246 244 240 236 233 231 229 227 227 228 229 230 231 233
345 350 349 348 346 341 336 327 314 301 287 283 268 256 255 254 250 249 246 241 239 235 233 232 228 226 227 229 228 228 231 233
342 336 336 338 341 337 336 338 339 308 292 288 280 269 259 253 252 248 245 242 238 235 232 230 228 227 227 227 226 226 229 233
328 326 330 330 327 325 332 337 338 344 317 298 288 275 264 258 251 246 244 243 240 234 231 230 230 226 226 227 226 225 226 228
326 324 320 329 326 319 320 328 333 339 344 324 302 284 271 260 251 247 243 240 236 232 228 229 228 225 226 227 224 224 223 225
328 328 322 326 326 322 318 315 325 332 328 334 326 305 283 266 256 248 242 239 234 231 230 228 228 223 224 227 222 220 220 221
325 322 322 322 323 319 318 316 317 318 322 320 327 320 299 279 261 249 241 237 233 231 231 229 226 220 225 228 222 220 218 221
321 319 321 318 320 316 312 313 313 315 309 306 312 319 315 286 267 253 243 235 232 230 229 228 225 218 221 222 228 220 220 219
321 321 321 319 316 312 313 314 312 307 307 299 290 296 301 297 279 258 246 238 233 230 228 228 223 217 217 214 222 219 216 216
316 316 316 316 312 310 308 309 304 293 291 292 290 278 274 277 273 259 251 244 240 233 228 227 221 213 210 204 204 213 209 207
308 309 309 310 308 306 306 303 302 296 289 284 280 283 273 263 260 257 256 253 248 244 237 232 226 218 214 213 205 213 215 206
304 306 307 306 303 302 301 302 300 293 287 280 279 273 272 267 261 257 253 249 246 244 245 243 240 233 218 215 214 215 215 206
304 304 305 302 299 300 299 298 295 291 287 281 275 274 270 265 261 258 253 253 249 244 244 241 234 227 220 209 199 204 207 208
300 301 300 298 296 301 302 297 292 290 284 279 269 268 270 266 265 261 253 245 240 230 221 221 224 212 190 185 182 182 204 211
301 300 301 298 296 304 304 298 295 290 284 278 267 265 264 268 262 256 250 245 240 230 209 209 191 188 184 179 185 196 212 204